Other Public Products
Issued by NWS Grand Forks, ND

Home | Current Version | Previous Version | Text Only | Print | Product List | Glossary On
Versions: 1 2 3 4 5 6 7 8 9 10 11 12 13 14 15 16 17 18 19 20 21 22 23 24 25 26 27 28 29 30 31 32 33 34 35 36 37 38 39 40 41 42 43 44 45 46 47 48 49 50
000
FPUS83 KFGF 051110
OPUFGF
PRAIRIE TO PINES WEATHER ROUNDUP
NATIONAL WEATHER SERVICE EASTERN NORTH DAKOTA/GRAND FORKS ND
600 AM CDT WED AUG 05 2015

 **SATELLITE DATA USED TO AUGMENT SKY COVER AT AUTOMATED STATIONS**
 *****  WEATHER ACROSS EASTERN NORTH DAKOTA  *****

CITY           SKY/WX    TMP DP  RH WIND       PRES   REMARKS
GRAND FORKS    FAIR      55  51  86 S6        30.02S
GRAND FORKS AF PTCLDY    53  51  91 S3        30.02F
GRAND CITY NWS   N/A     55 N/A N/A SE6         N/A
BUXTON         NOT AVBL
DEVILS LAKE    CLOUDY    61  52  72 SE8       30.00S
FARGO          MOCLDY    59  54  83 SE9       30.02F
WAHPETON ARPT  NOT AVBL
$$

 *****  WEATHER ACROSS CENTRAL AND WESTERN NORTH DAKOTA  *****

CITY           SKY/WX    TMP DP  RH WIND       PRES   REMARKS
JAMESTOWN      MOCLDY    58  53  84 SE6       30.02R
BISMARCK       MOCLDY    62  58  86 E5        29.99R
MINOT          CLOUDY    63  56  78 SE9       29.92S
MINOT AFB      CLOUDY    62  59  91 SE14      29.90F
GARRISON         N/A     65  61  87 SE9       29.93F
WILLISTON      CLOUDY    68  61  78 S3        29.90R
DICKINSON      MOCLDY    61  59  93 S6        29.93F
HETTINGER      MOCLDY    64  60  87 SE6       29.96S THUNDER
$$

 *****  OTHER OBSERVATIONS NORTHEAST NORTH DAKOTA  *****

CITY           SKY/WX    TMP DP  RH WIND       PRES   REMARKS
WALHALLA       FAIR      50  50 100 MISG      30.03S
LANGDON        FAIR      55  52  88 SE8       30.03F
CAVALIER       FAIR      52  50  93 CALM      30.03S
GRAFTON        FAIR      52  52 100 CALM      30.03S
CANDO          NOT AVBL
FORT TOTTEN      N/A     61  53  74 SE7       29.95S
ROLLA          CLOUDY    55  54  94 SE8       30.01F
RUGBY          NOT AVBL
 ***** THE ABOVE OBSERVATIONS ARE NON NWS ARE NOT QUALITY
        CONTROLLED AND MAY MIS-REPORT RAIN FOR SNOW...
$$

 *****  OTHER OBSERVATIONS SOUTHEAST NORTH DAKOTA *****

CITY           SKY/WX    TMP DP  RH WIND       PRES   REMARKS
COOPERSTOWN    NOT AVBL
VALLEY CITY    CLOUDY    59  55  88 S7        30.03R
OAKES            N/A     55  55 100 E5        30.02S
GWINNER          N/A     55  55 100 CALM      30.03S
SHEYENNE NWR     N/A     54  52  93 E3        29.95S
BUFFALO        NOT AVBL
WYNDMERE         N/A     52  52 100 E2          N/A
 ***** THE ABOVE OBSERVATIONS ARE NON NWS ARE NOT QUALITY
       CONTROLLED AND MAY MIS-REPORT RAIN FOR SNOW...
$$

  *****  WEATHER ACROSS NORTHERN MINNESOTA  *****

CITY           SKY/WX    TMP DP  RH WIND       PRES   REMARKS
FLAG ISLAND    CLEAR     63  55  77 S10       30.06R
WARROAD        CLEAR     52  48  87 CALM      30.08R
ROSEAU         CLEAR     48  45  87 CALM      30.07R
HALLOCK        CLEAR     50  48  93 CALM      30.04S
THF RVR FALLS  CLEAR     52  48  87 SE7       30.06S
HALSTAD        NOT AVBL
FOSSTON        CLEAR     54  48  82 SE3       30.06F
BAUDETTE       CLEAR     49  47  93 CALM      30.09R
WASKISH        CLEAR     45  45 100 CALM      30.09S
CROOKSTON      FAIR      54  52  94 SE7       30.04F
$$
  *****  WEATHER ACROSS CENTRAL AND WEST MINNESOTA  *****

CITY           SKY/WX    TMP DP  RH WIND       PRES   REMARKS
BEMIDJI        FOG       49  48  96 CALM      30.09S VSB 1/2
PARK RAPIDS    CLEAR     53  49  86 CALM      30.08S
WADENA         CLEAR     52  50  93 CALM      30.06F
DETROIT LAKES  CLEAR     57  52  82 SE7       30.07F
MOORHEAD       MOCLDY    57  54  88 SE6       30.03F
FERGUS FALLS   PTCLDY    61  54  77 E3        30.04S
ELBOW LAKE     FAIR      60  55  84 E8        30.04S
MORRIS MN      CLEAR     54  52  94 E7        30.03F
STAPLES        CLEAR     50  48  93 CALM      30.07S
WHEATON        PTCLDY    50  48  93 E5        30.05S
$$
  *****  WEATHER ELSEWHERE ACROSS MINNESOTA  *****

CITY           SKY/WX    TMP DP  RH WIND       PRES   REMARKS
DULUTH         PTCLDY    48  45  89 CALM      30.10S
INTRNTL FALLS  CLOUDY    39  39 100 CALM      30.09S FOG
ELY            FOG       43  43 100 CALM      30.11F VSB 1/2
CLOQUET        CLEAR     45  43  93 NW5       30.10S
BRAINERD       CLEAR     51  50  96 NE5       30.08S
HIBBING        CLEAR     38  37  97 CALM      30.11R
ALEXANDRIA     CLEAR     57  54  89 E5        30.07S
SAINT CLOUD    CLEAR     55  53  93 E3        30.06R
MINNEAPOLIS    PTCLDY    62  57  83 SE6       30.05R
$$

  *****  WEATHER ACROSS SOUTH DAKOTA  *****

CITY           SKY/WX    TMP DP  RH WIND       PRES   REMARKS
SIOUX FALLS    MOCLDY    60  55  83 E7        30.03S
BROOKINGS      MOCLDY    59  54  82 CALM      30.06R
WATERTOWN      MOCLDY    59  52  77 S3        30.04R
HURON          CLOUDY   N/A N/A N/A SE7       30.00S
SISSETON         N/A     51  49  92 CALM      30.02S
ABERDEEN       PTCLDY    56  54  93 SE3       30.00F
MITCHELL       MOCLDY    61  60  97 SE5       30.02R
PIERRE         CLOUDY    65  63  93 E10       29.96F
MOBRIDGE       MOCLDY    67  65  93 SE12      29.96S
RAPID CITY     CLEAR     61  59  93 CALM      29.99S
$$

  *****  SOME WEATHER IN NEARBY STATES *****

CITY           SKY/WX    TMP DP  RH WIND       PRES   REMARKS
GLASGOW MT     CLEAR     61  58  90 E7        29.88F
GREAT FALLS MT CLEAR     53  49  86 NW6       29.93F
CHEYENNE WY    CLEAR     55  49  80 CALM      30.18F
SCOTTSBLUFF NE FOG       60  59  96 CALM      30.07R VSB 1/2
OMAHA NE       CLOUDY    68  66  93 E3        29.97S
DES MOINES IA  CLOUDY    70  63  78 E5        30.00R
DAVENPORT IA   CLEAR     60  56  86 E5        30.03S
CHICAGO IL     MOCLDY    62  58  86 W3        30.05R
EAU CLAIRE WI  CLEAR     52  49  89 NE3       30.06S
LA CROSSE WI   CLEAR     58  55  90 E3        30.05S
$$

  *****  SOME NATIONAL WEATHER *****

CITY           SKY/WX    TMP DP  RH WIND       PRES   REMARKS
LA GUARDIA NY  PTSUNNY   76  61  59 CALM      29.90R
RALEIGH NC     PTCLDY    73  72  96 CALM      30.00R
ATLANTA GA     PTCLDY    75  68  78 W3        30.04R
NEW ORLEANS LA MOCLDY    80  75  84 W7        30.01R
OKLAHOMA CITY  PTCLDY    71  70  96 S7        29.90F
ALBUQUERQUE NM CLEAR     71  43  36 N6        30.18S
SALT LAKE CITY MOCLDY    79  42  26 S15       29.95S
LOS ANGELES CA PTCLDY    67  62  84 E3        29.90S
BOISE ID       MOCLDY    69  57  65 SE13      29.90S
SEATTLE WA     PTCLDY    56  51  84 S5        30.06R
$$

*** WEATHER ACROSS MANITOBA...SASKATCHEWAN AND ONTARIO ***
                ***ONTARIO***

CITY           SKY/WX    TMP DP  RH WIND       PRES   REMARKS
GERALDTON      PTCLDY    52  50  93 NW9       30.04R
THUNDER BAY    PTCLDY    50  48  93 SW6       30.09R
SIOUX LOOKOUT  PTCLDY    50  50 100 CALM      30.10S
TORONTO        PTCLDY    59  50  72 W8        29.96R
BIG TROUT LK   CLOUDY    52  50  93 N3        30.06F
PICKLE LAKE    MOCLDY    54  52  94 N2        30.09
DRYDEN         CLEAR     54  52  94 NE2       30.10S
KENORA         MOCLDY    54  52  94 E6        30.09S
$$
                *** MANITOBA***

CITY           SKY/WX    TMP DP  RH WIND       PRES   REMARKS
BRANDON        MOCLDY    55  52  88 E12       29.99F
DAUPHIN        CLEAR     50  50 100 CALM      30.01S
ISLAND LAKE    CLOUDY    57  54  88 S3        30.10R
PILOT MOUND      N/A     52  50  93 E7          N/A
THE PAS        LGT RAIN  59  57  94 S6        30.04S
THOMPSON       CLOUDY    50  50 100 N2        30.12S
WINNIPEG       MOCLDY    54  50  87 CALM      30.05S
LYNN LAKE      CLOUDY    54  50  87 E3        30.10S
CHURCHILL      MOCLDY    48  46  93 NE5       30.14S
GILLAM         CLOUDY    48  45  87 N8        30.14S
$$
                ***SASKATCHEWAN***

CITY           SKY/WX    TMP DP  RH WIND       PRES   REMARKS
ESTEVAN        LGT RAIN  61  59  94 NE8       29.87F
KINDERSLEY     FOG       57  57 100 W3        29.85S VSB 3/8
LLOYDMINSTER   CLOUDY    57  54  88 N5        29.86R
PRINCE ALBERT  CLOUDY    59  57  94 E14G25    29.84F
REGINA         LGT RAIN  59  57  94 E16       29.89F



USA.gov is the U.S. government's official web portal to all federal, state and local government web resources and services.